Leuchars, United Kingdom

7:16 AM BST on September 26, 2016 (GMT +0100)
Leuchars Air Base

Weather History for EGQL - October, 2013

Change the Weather History Date:

Saturday, October 19, 2013

  Actual Average Record
Temperature  
Mean Temperature 52 °F -  
Max Temperature 54 °F 52 °F 59 °F (2007)
Min Temperature 50 °F 42 °F 32 °F (2002)
Degree Days  
Heating Degree Days 13    
Growing Degree Days 2 (Base 50)    
Moisture  
Dew Point 52 °F    
Average Humidity 95    
Maximum Humidity 100    
Minimum Humidity 82    
Precipitation  
Precipitation 0.71 in - - ()
Sea Level Pressure  
Sea Level Pressure 29.52 in    
Wind  
Wind Speed 10 mph ()    
Max Wind Speed 18 mph    
Max Gust Speed -    
Visibility 3.1 miles    
Events Fog , Rain    
Averages and records for this station are not official NWS values.
T = Trace of Precipitation, MM = Missing Value Source: Averaged Metar Reports

Daily Weather History Graph

Daily Weather History Graph

Search for Another Location

Airport or City:

Trip Planner

Search our weather history database for the weather conditions in past years. The results will help you decide how hot, cold, wet, or windy it might be!

Date:

Astronomy

Oct. 19, 2013 Rise Set
Actual Time 7:51 AM BST 5:59 PM BST
Civil Twilight 7:13 AM BST 6:38 PM BST
Nautical Twilight 6:29 AM BST 7:21 PM BST
Astronomical Twilight 5:46 AM BST 8:05 PM BST
Moon 6:05 PM BST (10/19) 8:23 AM BST (10/19)
Length of Visible Light 11h 24m
Length of Day
10h 07m
Full, 100% of the Moon is Illuminated
Oct 19
Full
Oct 27
Last Quarter
Nov 3
New
Nov 10
First Quarter
Nov 17
Full

Hourly Weather History & Observations

Time (BST) Temp. Dew Point Humidity Pressure Visibility Wind Dir Wind Speed Gust Speed Precip Events Conditions
12:50 AM 54 °F 52 °F 92% 29.71 in 3 mi SSE 18.4 mph - - Rain Rain
12:50 AM 53.6 °F 51.8 °F 94% 29.71 in 3.1 mi SSE 18.4 mph - N/A Rain Rain
1:50 AM 53.6 °F 51.8 °F 94% 29.68 in 3.7 mi SE 18.4 mph - N/A Rain Light Rain
2:50 AM 53.6 °F 51.8 °F 94% 29.65 in - SE 15.0 mph - N/A Rain Light Rain
3:02 AM 53.6 °F 51.8 °F 94% 29.65 in 3.7 mi SE 16.1 mph - N/A Rain Light Rain
3:50 AM 53 °F 52 °F 94% 29.64 in 3 mi SE 13.8 mph - - Rain Light Rain
3:50 AM 53.6 °F 51.8 °F 94% 29.62 in 3.1 mi SE 13.8 mph - N/A Rain Light Rain
4:50 AM 53.6 °F 51.8 °F 94% 29.59 in 2.8 mi SE 15.0 mph - N/A Rain Rain
5:50 AM 53.6 °F 51.8 °F 94% 29.56 in 3.7 mi SE 16.1 mph - N/A Rain Light Rain
6:50 AM 53.6 °F 51.8 °F 94% 29.53 in 5.0 mi SE 15.0 mph - N/A   Haze
7:50 AM 53.6 °F 51.8 °F 94% 29.53 in 5.0 mi SE 15.0 mph - N/A   Haze
8:50 AM 53.6 °F 50.0 °F 88% 29.53 in 6.2 mi SE 12.7 mph - N/A Rain Light Rain
9:50 AM 54 °F 50 °F 82% 29.54 in 7 mi SSE 9.2 mph - - Rain Light Rain
9:50 AM 53.6 °F 50.0 °F 88% 29.53 in 6.2 mi SSE 9.2 mph - N/A   Mostly Cloudy
10:50 AM 53.6 °F 51.8 °F 94% 29.50 in 6.2 mi SSE 9.2 mph - N/A   Mostly Cloudy
11:50 AM 53.6 °F 51.8 °F 94% 29.50 in 5.0 mi SSE 8.1 mph - N/A Rain Light Rain
12:14 PM 53.6 °F 51.8 °F 94% 29.50 in 3.7 mi SSE 9.2 mph - N/A Rain Light Rain
12:38 PM 53.6 °F 51.8 °F 94% 29.50 in 1.9 mi SSE 5.8 mph - N/A Rain Rain
12:50 PM 54 °F 53 °F 93% 29.51 in 2 mi ESE 3.5 mph - - Rain Heavy Rain
12:50 PM 53.6 °F 51.8 °F 94% 29.50 in 1.9 mi ESE 3.5 mph - N/A Rain Rain
1:50 PM 53.6 °F 51.8 °F 94% 29.50 in 1.6 mi East 4.6 mph - N/A Rain Heavy Rain
2:50 PM 53.6 °F 53.6 °F 100% 29.47 in 1.6 mi East 5.8 mph - N/A   Light Drizzle
3:50 PM 54 °F 53 °F 95% 29.48 in 2 mi East 3.5 mph - - Rain Light Drizzle
3:50 PM 53.6 °F 53.6 °F 100% 29.47 in 2.2 mi East 3.5 mph - N/A   Overcast
4:50 PM 53.6 °F 53.6 °F 100% 29.44 in 1.9 mi East 4.6 mph - N/A Rain Light Rain
5:50 PM 53.6 °F 53.6 °F 100% 29.44 in 1.2 mi East 3.5 mph - N/A Fog Fog
5:59 PM 51.8 °F 51.8 °F 100% 29.44 in 1.2 mi East 3.5 mph - N/A Fog Patches of Fog
6:06 PM 51.8 °F 51.8 °F 100% 29.44 in 0.4 mi ENE 2.3 mph - N/A Fog Fog
6:50 PM 51 °F 50 °F 97% 29.47 in 0 mi NE 3.5 mph - - Fog Partial Fog
6:50 PM 51.8 °F 50.0 °F 94% 29.44 in 0.2 mi NE 3.5 mph - N/A Fog Fog
7:50 PM 50.0 °F 50.0 °F 100% 29.44 in 0.2 mi North 3.5 mph - N/A Fog Fog
8:42 PM 50.0 °F 50.0 °F 100% 29.44 in 0.7 mi East 2.3 mph - N/A   Mostly Cloudy
8:50 PM 50.0 °F 50.0 °F 100% 29.44 in 0.7 mi East 2.3 mph - N/A   Mostly Cloudy
9:50 PM 51 °F 51 °F 100% 29.47 in 4 mi SSE 1.2 mph - - Rain Light Rain
9:50 PM 51.8 °F 51.8 °F 100% 29.44 in 3.7 mi SSE 1.2 mph - N/A Rain Light Rain
10:50 PM 51.8 °F 51.8 °F 100% 29.44 in 6.2 mi WNW 3.5 mph - N/A Rain Light Rain
11:50 PM 51.8 °F 50.0 °F 94% 29.44 in 6.2 mi SW 4.6 mph - N/A   Scattered Clouds